Weather History for KRDG - December, 2012

Change the Weather History Date:

Saturday, December 29, 2012

  Actual Average Record
Temperature  
Mean Temperature 30 °F 31 °F  
Max Temperature 33 °F 39 °F 77 °F (1984)
Min Temperature 27 °F 23 °F -5 °F (1917)
Degree Days  
Heating Degree Days 35 34  
Month to date heating degree days 720 895  
Since 1 July heating degree days 1771 1962  
Cooling Degree Days 0 0  
Month to date cooling degree days 0 0  
Year to date cooling degree days 1281 896  
Moisture  
Dew Point 26 °F    
Average Humidity 81    
Maximum Humidity 92    
Minimum Humidity 69    
Precipitation  
Precipitation 0.17 in 0.09 in 1.79 in (1901)
Month to date precipitation 2.86 3.11  
Year to date precipitation 38.78 43.09  
Sea Level Pressure  
Sea Level Pressure 29.73 in    
Wind  
Wind Speed 6 mph (North)    
Max Wind Speed 23 mph    
Max Gust Speed 31 mph    
Visibility 5 miles    
Events Fog , Snow    
T = Trace of Precipitation, MM = Missing Value Source: NWS Daily Summary

Daily Weather History Graph

Daily Weather History Graph

Search for Another Location

Airport or City:

Trip Planner

Search our weather history database for the weather conditions in past years. The results will help you decide how hot, cold, wet, or windy it might be!

Date:

Astronomy

Dec. 29, 2012 Rise Set
Actual Time 7:26 AM EST 4:46 PM EST
Civil Twilight 6:55 AM EST 5:16 PM EST
Nautical Twilight 6:21 AM EST 5:50 PM EST
Astronomical Twilight 5:48 AM EST 6:24 PM EST
Moon 6:17 PM EST (12/29) 7:58 AM EST (12/29)
Length of Visible Light 10h 21m
Length of Day
9h 19m
Full, 98% of the Moon is Illuminated
Dec 29
Full
Jan 4
Last Quarter
Jan 11
New
Jan 18
First Quarter
Jan 26
Full

Hourly Weather History & Observations

Time (EST) Temp. Windchill Dew Point Humidity Pressure Visibility Wind Dir Wind Speed Gust Speed Precip Events Conditions
12:54 AM 28.9 °F 25.2 °F 24.1 °F 82% 30.04 in 10.0 mi NNE 3.5 mph - N/A   Mostly Cloudy
1:54 AM 28.9 °F - 24.1 °F 82% 30.04 in 10.0 mi Calm Calm - N/A   Clear
2:54 AM 30.0 °F - 24.1 °F 79% 30.04 in 10.0 mi Calm Calm - N/A   Mostly Cloudy
3:54 AM 30.0 °F - 24.1 °F 79% 30.02 in 10.0 mi Calm Calm - N/A   Overcast
4:54 AM 30.0 °F 26.5 °F 23.0 °F 75% 29.96 in 10.0 mi ENE 3.5 mph - N/A   Overcast
5:54 AM 30.0 °F 25.2 °F 23.0 °F 75% 29.94 in 10.0 mi ENE 4.6 mph - N/A   Overcast
7:54 AM 30.0 °F 25.2 °F 23.0 °F 75% 29.89 in 10.0 mi East 4.6 mph - N/A   Overcast
8:23 AM 30.2 °F 25.4 °F 24.8 °F 80% 29.84 in 2.5 mi ENE 4.6 mph - 0.00 in Snow Light Snow
8:31 AM 30.2 °F 22.6 °F 24.8 °F 80% 29.83 in 5.0 mi East 8.1 mph - 0.00 in Snow Light Snow
8:36 AM 30.2 °F 24.3 °F 24.8 °F 80% 29.83 in 1.8 mi East 5.8 mph - 0.00 in Snow Light Snow
8:54 AM 28.9 °F 23.9 °F 25.0 °F 85% 29.84 in 1.8 mi NE 4.6 mph - 0.01 in Snow Light Snow
9:00 AM 28.4 °F - 24.8 °F 86% 29.81 in 2.5 mi Calm Calm - 0.00 in Snow Light Snow
9:07 AM 30.2 °F 24.3 °F 26.6 °F 86% 29.80 in 7.0 mi NE 5.8 mph - 0.00 in Snow Light Snow
9:54 AM 30.9 °F 27.5 °F 26.1 °F 82% 29.80 in 4.0 mi Variable 3.5 mph - 0.00 in Snow Light Snow
10:54 AM 32.0 °F - 27.0 °F 82% 29.78 in 3.0 mi Calm Calm - 0.00 in Snow Light Snow
11:01 AM 30.2 °F - 26.6 °F 86% 29.74 in 2.5 mi Calm Calm - 0.00 in Snow Light Snow
11:08 AM 30.2 °F - 26.6 °F 86% 29.73 in 3.0 mi Calm Calm - 0.00 in Snow Light Snow
11:20 AM 30.2 °F 26.7 °F 28.4 °F 93% 29.73 in 1.8 mi North 3.5 mph - 0.00 in Snow Light Snow
11:30 AM 30.2 °F 25.4 °F 28.4 °F 93% 29.71 in 0.8 mi NNE 4.6 mph - 0.01 in Snow Light Snow
11:37 AM 30.2 °F - 28.4 °F 93% 29.72 in 0.5 mi Calm Calm - 0.01 in Fog , Snow Snow
11:45 AM 30.2 °F - 28.4 °F 93% 29.71 in 0.2 mi Calm Calm - 0.03 in Fog , Snow Heavy Snow
11:54 AM 30.0 °F 26.5 °F 28.9 °F 96% 29.72 in 0.2 mi North 3.5 mph - 0.04 in Fog , Snow Heavy Snow
12:54 PM 30.0 °F 26.5 °F 28.9 °F 96% 29.68 in 0.2 mi North 3.5 mph - 0.07 in Fog , Snow Snow
1:54 PM 30.0 °F 26.5 °F 28.9 °F 96% 29.64 in 1.0 mi North 3.5 mph - 0.04 in Snow Light Snow
2:14 PM 30.2 °F 26.7 °F 28.4 °F 93% 29.61 in 1.2 mi North 3.5 mph - 0.00 in Snow Light Snow
2:54 PM 30.9 °F 26.2 °F 28.9 °F 92% 29.61 in 1.2 mi North 4.6 mph - 0.01 in Snow Light Snow
3:20 PM 30.2 °F 24.3 °F 28.4 °F 93% 29.57 in 1.2 mi North 5.8 mph - 0.00 in Snow Light Snow
3:54 PM 30.9 °F 25.2 °F 28.0 °F 89% 29.58 in 1.2 mi North 5.8 mph - 0.00 in Snow Light Snow
4:24 PM 30.2 °F 25.4 °F 28.4 °F 93% 29.56 in 2.0 mi NNW 4.6 mph - 0.00 in Snow Light Snow
4:33 PM 30.2 °F 24.3 °F 28.4 °F 93% 29.56 in 1.8 mi NNW 5.8 mph - 0.00 in Snow Light Snow
4:36 PM 30.2 °F 24.3 °F 28.4 °F 93% 29.56 in 2.0 mi NNW 5.8 mph - 0.00 in Snow Light Snow
4:45 PM 30.2 °F 26.7 °F 28.4 °F 93% 29.56 in 1.8 mi NW 3.5 mph - 0.00 in Snow Light Snow
4:54 PM 30.9 °F 26.2 °F 28.9 °F 92% 29.58 in 1.5 mi NNW 4.6 mph - 0.00 in Snow Light Snow
5:05 PM 30.2 °F 24.3 °F 28.4 °F 93% 29.56 in 3.0 mi NNW 5.8 mph - 0.00 in Snow Light Snow
5:18 PM 30.2 °F 26.7 °F 28.4 °F 93% 29.55 in 2.0 mi North 3.5 mph - 0.00 in Snow Light Snow
6:41 PM 30.2 °F 23.4 °F 28.4 °F 93% 29.59 in 2.0 mi WNW 6.9 mph - N/A   Overcast
6:54 PM 30.9 °F 24.3 °F 28.9 °F 92% 29.62 in 2.0 mi WNW 6.9 mph - N/A   Overcast
7:52 PM 32.0 °F 20.5 °F 26.6 °F 80% 29.61 in 7.0 mi WNW 18.4 mph - N/A   Mostly Cloudy
7:54 PM 32.0 °F 20.5 °F 26.1 °F 79% 29.64 in 7.0 mi WNW 18.4 mph 26.5 mph N/A   Mostly Cloudy
8:34 PM 32.0 °F 22.1 °F 24.8 °F 75% 29.63 in 10.0 mi WNW 13.8 mph - N/A   Mostly Cloudy
8:54 PM 32.0 °F 20.8 °F 24.1 °F 73% 29.66 in 10.0 mi NW 17.3 mph 23.0 mph N/A   Mostly Cloudy
9:54 PM 33.1 °F 22.6 °F 24.1 °F 70% 29.69 in 10.0 mi NW 16.1 mph 25.3 mph N/A   Mostly Cloudy
10:01 PM 33.8 °F 23.2 °F 24.8 °F 70% 29.68 in 10.0 mi NW 17.3 mph 26.5 mph N/A   Overcast
10:39 PM 33.8 °F 24.3 °F 24.8 °F 70% 29.69 in 10.0 mi NW 13.8 mph - N/A   Overcast
10:54 PM 33.1 °F 23.0 °F 24.1 °F 70% 29.73 in 10.0 mi NW 15.0 mph 21.9 mph N/A   Overcast
11:54 PM 33.1 °F 23.4 °F 24.1 °F 70% 29.74 in 10.0 mi NW 13.8 mph - N/A   Overcast